User: anonymous   Login
Location: Prairie State College
(41.5244°N, 87.6382°W)
Time: 15:47:20
(UTC-06:00)
Language:

Cosmos 1140 Rocket - Orbit

View from above orbital plane
View from above orbital plane
View from above satellite
View from above satellite

Ground track
Ground track

The orbit data is extracted from the following two-line orbital elements,

1 11574U 79089B   16038.51067383  .00000049  00000-0  23638-4 0  9991
2 11574  74.0685  53.9246 0014525  84.5984 275.6828 14.40544164905762
Epoch (UTC): 07 February 2016 12:15:22
Eccentricity: 0.0014525
inclination: 74.0685°
perigee height: 746 km
apogee height: 767 km
right ascension of ascending node: 53.9246°
argument of perigee: 84.5984°
revolutions per day: 14.40544164
mean anomaly at epoch: 275.6828°
orbit number at epoch: 90576

The dashed part of the orbit path shows where the satellite is in the earth's shadow,  

DLR